DW9918 Weather Reports


Display with metric or nautical units.
time (UTC)temp
F
wind
direction
speed
MPH
gust
MPH
rain 1hr
in
rain 24hr
in
rain mn
in
humidity
%
barometer
mb
20260831101516 87 113 1.0 3.0 0.00 0.00 0.00 48 1014.8
20260831101141 88 198 0.0 4.0 0.00 0.00 0.00 47 1015.0
20260831100152 88 101 1.0 5.0 0.00 0.00 0.00 48 1015.1
20260831100012 87 355 2.0 5.0 0.00 0.00 0.00 47 1015.0
20260831095133 87 266 1.0 5.0 0.00 0.00 0.00 51 1015.2
20260831094510 86 315 1.0 4.0 0.00 0.00 0.00 52 1015.2
20260831094140 87 334 1.0 4.0 0.00 0.00 0.00 53 1015.2
20260831093137 85 297 2.0 6.0 0.00 0.00 0.00 55 1015.3
20260831093034 85 312 3.0 7.0 0.00 0.00 0.00 57 1015.3
20260831092133 85 320 1.0 7.0 0.00 0.00 0.00 59 1015.3
20260831091533 84 325 3.0 6.0 0.00 0.00 0.00 58 1015.3
20260831091149 84 342 1.0 7.0 0.00 0.00 0.00 60 1015.3
20260831090124 84 317 2.0 5.0 0.00 0.00 0.00 59 1015.4
20260831090027 83 331 2.0 5.0 0.00 0.00 0.00 59 1015.4
20260831085159 83 276 3.0 5.0 0.00 0.00 0.00 59 1015.4
20260831084527 82 237 2.0 6.0 0.00 0.00 0.00 61 1015.3
20260831084130 82 231 3.0 6.0 0.00 0.00 0.00 61 1015.4
20260831083140 82 305 1.0 6.0 0.00 0.00 0.00 62 1015.3
20260831083018 81 301 1.0 6.0 0.00 0.00 0.00 61 1015.2
20260831082126 81 308 2.0 5.0 0.00 0.00 0.00 63 1015.3
20260831081532 80 328 2.0 6.0 0.00 0.00 0.00 62 1015.2
20260831081141 80 328 1.0 8.0 0.00 0.00 0.00 64 1015.2
20260831080038 79 287 5.0 6.0 0.00 0.00 0.00 63 1015.1
20260831075124 79 259 4.0 6.0 0.00 0.00 0.00 64 1015.2
20260831074530 78 272 4.0 6.0 0.00 0.00 0.00 63 1015.0
20260831074132 78 254 5.0 7.0 0.00 0.00 0.00 63 1015.1
20260831073125 77 257 3.0 5.0 0.00 0.00 0.00 68 1015.0
20260831073030 77 264 3.0 5.0 0.00 0.00 0.00 67 1014.9
20260831072126 76 245 3.0 5.0 0.00 0.00 0.00 71 1015.1
20260831071527 75 251 2.0 6.0 0.00 0.00 0.00 70 1014.8
20260831071131 76 274 4.0 6.0 0.00 0.00 0.00 70 1014.9
20260831070139 75 280 2.0 5.0 0.00 0.00 0.00 72 1014.9
20260831070024 74 228 3.0 6.0 0.00 0.00 0.00 72 1014.8
20260831065155 74 240 5.0 6.0 0.00 0.00 0.00 74 1014.9
20260831064536 73 269 3.0 5.0 0.00 0.00 0.00 74 1014.8
20260831064126 74 232 2.0 4.0 0.00 0.00 0.00 76 1014.8
20260831063214 73 283 1.0 4.0 0.00 0.00 0.00 78 1014.8
20260831063016 72 233 2.0 4.0 0.00 0.00 0.00 78 1014.7
20260831062134 72 222 2.0 4.0 0.00 0.00 0.00 79 1014.8
20260831061511 71 233 1.0 2.0 0.00 0.00 0.00 79 1014.7
20260831061127 72 224 1.0 2.0 0.00 0.00 0.00 81 1014.8
20260831060137 70 231 0.0 1.0 0.00 0.00 0.00 83 1014.7
20260831060009 70 231 0.0 1.0 0.00 0.00 0.00 83 1014.6
20260831055140 69 243 0.0 1.0 0.00 0.00 0.00 84 1014.7
20260831054503 68 247 0.0 2.0 0.00 0.00 0.00 84 1014.6
20260831054134 68 237 0.0 2.0 0.00 0.00 0.00 85 1014.7
20260831053137 67 233 1.0 2.0 0.00 0.00 0.00 85 1014.7
20260831053003 66 231 0.0 2.0 0.00 0.00 0.00 85 1014.6
20260831052125 66 226 0.0 1.0 0.00 0.00 0.00 86 1014.7
20260831051511 66 200 0.0 0.0 0.00 0.00 0.00 85 1014.5
20260831051132 66 200 0.0 1.0 0.00 0.00 0.00 86 1014.6
20260831050127 66 200 0.0 1.0 0.00 0.00 0.00 86 1014.6
20260831050019 65 200 0.0 1.0 0.00 0.00 0.00 86 1014.4
20260831045131 66 202 0.0 1.0 0.00 0.00 0.00 87 1014.5
20260831044521 65 210 0.0 1.0 0.00 0.00 0.00 87 1014.4
20260831044157 66 210 0.0 1.0 0.00 0.00 0.00 87 1014.5
20260831043126 66 230 1.0 2.0 0.00 0.00 0.00 88 1014.5
20260831043011 65 219 1.0 2.0 0.00 0.00 0.00 87 1014.4
20260831042132 66 222 0.0 1.0 0.00 0.00 0.00 88 1014.4
20260831041508 65 222 0.0 2.0 0.00 0.00 0.00 88 1014.3
20260831041131 66 222 0.0 2.0 0.00 0.00 0.00 88 1014.5
20260831040205 66 224 2.0 3.0 0.00 0.00 0.00 88 1014.5
20260831040006 65 230 2.0 3.0 0.00 0.00 0.00 88 1014.4
20260831035158 66 264 1.0 3.0 0.00 0.00 0.00 88 1014.5
20260831034505 66 232 1.0 3.0 0.00 0.00 0.00 87 1014.4
20260831034126 66 224 1.0 3.0 0.00 0.00 0.00 88 1014.4
20260831033131 67 161 1.0 2.0 0.00 0.00 0.00 89 1014.4
20260831033044 66 141 1.0 2.0 0.00 0.00 0.00 88 1014.3
20260831032137 67 152 0.0 1.0 0.00 0.00 0.00 89 1014.5
20260831031516 66 148 0.0 1.0 0.00 0.00 0.00 89 1014.4
20260831031137 67 142 0.0 1.0 0.00 0.00 0.00 90 1014.5
20260831030127 67 139 0.0 1.0 0.00 0.00 0.00 91 1014.4
20260831030015 66 142 0.0 1.0 0.00 0.00 0.00 90 1014.5
20260831025143 67 105 1.0 1.0 0.00 0.00 0.00 90 1014.5
20260831024510 67 125 0.0 1.0 0.00 0.00 0.00 90 1014.4
20260831024142 67 126 0.0 1.0 0.00 0.00 0.00 90 1014.5
20260831023137 68 157 1.0 2.0 0.00 0.00 0.00 90 1014.4
20260831023008 67 155 0.0 2.0 0.00 0.00 0.00 89 1014.4
20260831022125 68 209 1.0 1.0 0.00 0.00 0.00 90 1014.4
20260831021507 68 209 0.0 1.0 0.00 0.00 0.00 90 1014.3
20260831021133 68 209 0.0 1.0 0.00 0.00 0.00 91 1014.3
20260831020142 67 136 0.0 1.0 0.00 0.00 0.00 92 1014.3
20260831020026 67 136 0.0 1.0 0.00 0.00 0.00 91 1014.2
20260831015153 67 136 0.0 0.0 0.00 0.00 0.00 91 1014.2
20260831014523 67 155 0.0 0.0 0.00 0.00 0.00 90 1014.1
20260831014154 68 156 0.0 0.0 0.00 0.00 0.00 92 1014.3
20260831013140 68 156 0.0 2.0 0.00 0.00 0.00 91 1014.5
20260831013014 67 156 0.0 2.0 0.00 0.00 0.00 90 1014.4
20260831012137 68 239 0.0 0.0 0.00 0.00 0.00 91 1014.4
20260831011512 68 239 0.0 0.0 0.00 0.00 0.00 91 1014.3
20260831011124 68 239 0.0 0.0 0.00 0.00 0.00 91 1014.3
20260831010135 69 239 0.0 1.0 0.00 0.00 0.00 92 1014.3
20260831010010 68 239 0.0 1.0 0.00 0.00 0.00 91 1014.2
20260831005124 69 239 0.0 1.0 0.00 0.00 0.00 91 1014.4
20260831004507 68 239 0.0 1.0 0.00 0.00 0.00 90 1014.3
20260831004143 69 239 0.0 0.0 0.00 0.00 0.00 91 1014.4
20260831003035 68 221 0.0 1.0 0.00 0.00 0.00 91 1014.3
20260831002137 68 221 0.0 0.0 0.00 0.00 0.00 90 1014.5
20260831001526 67 221 0.0 0.0 0.00 0.00 0.00 89 1014.5
20260831001137 68 221 0.0 0.0 0.00 0.00 0.00 89 1014.5
20260831000142 69 221 0.0 0.0 0.00 0.00 0.00 90 1014.6
20260831000026 69 221 0.0 0.0 0.00 0.00 0.00 90 1014.5
20260830235150 69 221 0.0 0.0 0.00 0.00 0.00 89 1014.6
20260830234532 69 221 0.0 1.0 0.00 0.00 0.00 89 1014.5
20260830234144 70 221 0.0 1.0 0.00 0.00 0.00 89 1014.6
20260830233130 70 212 1.0 1.0 0.00 0.00 0.00 90 1014.6
20260830233012 69 207 0.0 1.0 0.00 0.00 0.00 88 1014.4
20260830232138 70 172 0.0 0.0 0.00 0.00 0.00 89 1014.6
20260830231513 70 172 0.0 0.0 0.00 0.00 0.00 89 1014.5
20260830231131 71 172 0.0 0.0 0.00 0.00 0.00 90 1014.6
20260830230125 70 172 0.0 0.0 0.00 0.00 0.00 87 1014.6
20260830230032 70 172 0.0 0.0 0.00 0.00 0.00 87 1014.6
20260830225140 71 172 0.0 0.0 0.00 0.00 0.00 88 1014.7
20260830224526 70 172 0.0 0.0 0.00 0.00 0.00 88 1014.7
20260830224136 71 172 0.0 0.0 0.00 0.00 0.00 89 1014.7
20260830223127 71 172 0.0 0.0 0.00 0.00 0.00 87 1014.8
20260830223024 70 172 0.0 0.0 0.00 0.00 0.00 87 1014.6
20260830222132 71 172 0.0 0.0 0.00 0.00 0.00 87 1014.7
20260830221533 70 160 0.0 0.0 0.00 0.00 0.00 86 1014.5
20260830221125 71 150 0.0 0.0 0.00 0.00 0.00 87 1014.6
20260830220129 73 30 0.0 1.0 0.00 0.00 0.00 85 1014.5
20260830220019 72 30 0.0 1.0 0.00 0.00 0.00 84 1014.4
20260830215200 73 27 0.0 4.0 0.00 0.00 0.00 86 1014.5
20260830214511 73 37 1.0 3.0 0.00 0.00 0.00 82 1014.4
20260830214135 74 264 0.0 0.0 0.00 0.00 0.00 84 1014.5
20260830213130 74 274 0.0 0.0 0.00 0.00 0.00 84 1014.6
20260830213004 73 274 0.0 0.0 0.00 0.00 0.00 83 1014.4
20260830212133 73 274 0.0 0.0 0.00 0.00 0.00 85 1014.6
20260830211503 73 251 0.0 0.0 0.00 0.00 0.00 84 1014.5
20260830211128 74 251 0.0 0.0 0.00 0.00 0.00 84 1014.6
20260830210133 73 248 0.0 0.0 0.00 0.00 0.00 85 1014.6
20260830210007 73 248 0.0 0.0 0.00 0.00 0.00 85 1014.4
20260830205135 74 248 0.0 0.0 0.00 0.00 0.00 85 1014.5
20260830204505 73 239 0.0 0.0 0.00 0.00 0.00 85 1014.4
20260830204204 74 236 0.0 0.0 0.00 0.00 0.00 85 1014.6
20260830203154 74 232 0.0 0.0 0.00 0.00 0.00 83 1014.6
20260830203003 73 229 0.0 0.0 0.00 0.00 0.00 83 1014.4
20260830202127 74 200 0.0 0.0 0.00 0.00 0.00 83 1014.5
20260830201505 73 199 0.0 0.0 0.00 0.00 0.00 83 1014.3
20260830201147 74 199 0.0 0.0 0.00 0.00 0.00 83 1014.5
20260830200128 75 200 0.0 0.0 0.00 0.00 0.00 82 1014.4
20260830200004 74 200 0.0 0.0 0.00 0.00 0.00 82 1014.2
20260830195135 75 199 0.0 0.0 0.00 0.00 0.00 82 1014.4
20260830194506 74 201 0.0 0.0 0.00 0.00 0.00 82 1014.2
20260830194158 75 202 0.0 1.0 0.00 0.00 0.00 82 1014.5
20260830193143 75 206 0.0 1.0 0.00 0.00 0.00 82 1014.5
20260830193004 75 206 0.0 1.0 0.00 0.00 0.00 81 1014.4
20260830192129 75 84 0.0 0.0 0.00 0.00 0.00 81 1014.6
20260830191510 75 85 0.0 0.0 0.00 0.00 0.00 80 1014.4
20260830191136 76 85 0.0 0.0 0.00 0.00 0.00 81 1014.6
20260830190139 76 84 0.0 0.0 0.00 0.00 0.00 80 1014.5
20260830190004 76 84 0.0 0.0 0.00 0.00 0.00 79 1014.3
20260830185146 77 84 0.0 0.0 0.00 0.00 0.00 80 1014.4
20260830184504 76 84 0.0 1.0 0.00 0.00 0.00 79 1014.2
20260830184130 77 84 0.0 1.0 0.00 0.00 0.00 79 1014.3
20260830183128 77 84 0.0 1.0 0.00 0.00 0.00 79 1014.1
20260830183004 77 84 0.0 1.0 0.00 0.00 0.00 78 1014.0
20260830182127 78 84 1.0 3.0 0.00 0.00 0.00 79 1014.0
20260830181507 77 86 2.0 3.0 0.00 0.00 0.00 77 1013.8
20260830181134 78 92 2.0 2.0 0.00 0.00 0.00 77 1013.9
20260830180139 78 91 2.0 2.0 0.00 0.00 0.00 77 1013.9
20260830180007 78 91 1.0 2.0 0.00 0.00 0.00 76 1013.6
20260830175138 79 98 1.0 2.0 0.00 0.00 0.00 76 1013.8
20260830174506 79 91 1.0 3.0 0.00 0.00 0.00 75 1013.6
20260830174138 80 84 2.0 4.0 0.00 0.00 0.00 75 1013.8
20260830173128 80 87 3.0 6.0 0.00 0.00 0.00 74 1013.7
20260830173008 80 86 2.0 6.0 0.00 0.00 0.00 74 1013.5
20260830172156 81 98 2.0 5.0 0.00 0.00 0.00 73 1013.7
20260830171509 80 92 3.0 6.0 0.00 0.00 0.00 73 1013.4
20260830171134 81 85 3.0 6.0 0.00 0.00 0.00 73 1013.6
20260830170137 81 83 4.0 8.0 0.00 0.00 0.00 72 1013.7
20260830170028 81 73 5.0 8.0 0.00 0.00 0.00 71 1013.5
20260830165134 81 84 5.0 8.0 0.00 0.00 0.00 71 1013.7
20260830164508 81 86 4.0 9.0 0.00 0.00 0.00 70 1013.6
20260830164200 82 89 7.0 9.0 0.00 0.00 0.00 70 1013.7
20260830163136 82 71 5.0 9.0 0.00 0.00 0.00 69 1013.5
20260830163009 82 47 4.0 10.0 0.00 0.00 0.00 70 1013.5
20260830162128 82 86 5.0 10.0 0.00 0.00 0.00 68 1013.6
20260830161507 82 68 6.0 10.0 0.00 0.00 0.00 67 1013.5
20260830161215 83 83 6.0 10.0 0.00 0.00 0.00 66 1013.5
20260830160156 83 106 5.0 10.0 0.00 0.00 0.00 67 1013.7
20260830160008 83 86 5.0 10.0 0.00 0.00 0.00 67 1013.5
20260830155129 84 68 5.0 12.0 0.00 0.00 0.00 63 1013.6
20260830154510 83 84 8.0 13.0 0.00 0.00 0.00 64 1013.5
20260830154130 84 83 9.0 13.0 0.00 0.00 0.00 64 1013.5
20260830153155 85 85 8.0 12.0 0.00 0.00 0.00 62 1013.5
20260830153010 84 47 8.0 12.0 0.00 0.00 0.00 63 1013.5
20260830152134 85 98 7.0 14.0 0.00 0.00 0.00 62 1013.5
20260830151510 85 102 5.0 11.0 0.00 0.00 0.00 59 1013.5
20260830151153 86 75 5.0 12.0 0.00 0.00 0.00 58 1013.6
20260830150139 86 32 7.0 14.0 0.00 0.00 0.00 56 1013.5
20260830150017 86 87 7.0 14.0 0.00 0.00 0.00 57 1013.5
20260830145128 86 340 7.0 14.0 0.00 0.00 0.00 59 1013.5
20260830144514 86 68 6.0 13.0 0.00 0.00 0.00 58 1013.5
20260830144136 87 81 6.0 14.0 0.00 0.00 0.00 60 1013.5
20260830143144 87 53 7.0 14.0 0.00 0.00 0.00 57 1013.5
20260830143014 87 13 8.0 14.0 0.00 0.00 0.00 57 1013.4
20260830141516 87 334 9.0 15.0 0.00 0.00 0.00 57 1013.6
20260830140024 87 330 5.0 12.0 0.00 0.00 0.00 58 1013.7
20260830134514 87 32 4.0 12.0 0.00 0.00 0.00 59 1014.0
20260830133024 87 354 4.0 13.0 0.00 0.00 0.00 60 1014.0
20260830131516 87 345 2.0 11.0 0.00 0.00 0.00 60 1014.2
20260830130010 87 27 7.0 11.0 0.00 0.00 0.00 59 1014.2
20260830124507 87 304 5.0 8.0 0.00 0.00 0.00 59 1014.3
20260830123004 87 314 5.0 11.0 0.00 0.00 0.00 60 1014.3
20260830121505 86 316 3.0 10.0 0.00 0.00 0.00 62 1014.3
20260830120021 87 18 4.0 11.0 0.00 0.00 0.00 63 1014.2
20260830114519 86 358 7.0 11.0 0.00 0.00 0.00 63 1014.3
20260830113020 86 340 4.0 10.0 0.00 0.00 0.00 64 1014.3
20260830111512 85 330 6.0 12.0 0.00 0.00 0.00 65 1014.4
20260830110009 84 320 7.0 14.0 0.00 0.00 0.00 66 1014.4
20260830104504 84 290 8.0 12.0 0.00 0.00 0.00 65 1014.5
20260830103032 83 304 10.0 14.0 0.00 0.00 0.00 66 1014.7